DB0TGO-14 Weather Reports


Display with metric or nautical units.
time (UTC)temp
F
wind
direction
speed
MPH
gust
MPH
rain 1hr
in
rain 24hr
in
rain mn
in
humidity
%
barometer
mb
20260905125550 70 248 12.0 23.0 0.00 0.24 0.00 55 1015.9
20260905125405 70 270 11.0 23.0 0.00 0.24 0.00 55 1015.8
20260905125215 70 225 11.0 23.0 0.00 0.24 0.00 55 1016.0
20260905125020 70 248 11.0 19.0 0.00 0.24 0.00 55 1016.0
20260905124843 70 292 10.0 22.0 0.00 0.24 0.00 56 1016.0
20260905124655 70 180 10.0 22.0 0.00 0.24 0.00 57 1015.9
20260905124500 70 270 10.0 22.0 0.00 0.24 0.00 56 1015.9
20260905124313 70 248 10.0 22.0 0.00 0.24 0.00 57 1015.9
20260905124120 70 292 10.0 22.0 0.00 0.24 0.00 57 1016.1
20260905123926 70 225 10.0 17.0 0.00 0.24 0.00 57 1015.9
20260905123743 70 248 10.0 17.0 0.00 0.24 0.00 59 1016.0
20260905123602 70 248 10.0 17.0 0.00 0.24 0.00 59 1016.0
20260905123405 70 248 10.0 17.0 0.00 0.24 0.00 60 1016.0
20260905123210 70 202 10.0 17.0 0.00 0.24 0.00 60 1016.1
20260905123030 70 270 10.0 17.0 0.00 0.24 0.00 59 1015.9
20260905122846 70 225 9.0 17.0 0.00 0.24 0.00 59 1016.0
20260905122714 70 248 9.0 17.0 0.00 0.24 0.00 58 1016.0
20260905122705 70 248 9.0 17.0 0.00 0.24 0.00 58 1015.9
20260905122515 70 270 9.0 17.0 0.00 0.24 0.00 59 1016.0
20260905122326 70 248 9.0 17.0 0.00 0.24 0.00 59 1016.0
20260905122140 70 292 10.0 17.0 0.00 0.24 0.00 60 1016.0
20260905121955 70 248 10.0 17.0 0.00 0.24 0.00 60 1015.9
20260905121805 70 202 10.0 16.0 0.00 0.24 0.00 60 1015.9
20260905121625 69 315 10.0 20.0 0.00 0.24 0.00 60 1015.9
20260905121440 69 248 10.0 20.0 0.00 0.24 0.00 61 1016.1
20260905121255 69 248 9.0 20.0 0.00 0.24 0.00 61 1016.1
20260905121138 69 202 9.0 17.0 0.00 0.24 0.00 61 1016.1
20260905121055 69 292 9.0 17.0 0.00 0.24 0.00 62 1016.0
20260905120859 69 225 9.0 15.0 0.00 0.24 0.00 61 1016.1
20260905120705 69 270 9.0 16.0 0.00 0.24 0.00 62 1015.9
20260905120515 68 248 9.0 16.0 0.00 0.24 0.00 62 1016.2
20260905120325 68 292 9.0 16.0 0.00 0.24 0.00 62 1016.1
20260905120145 68 270 9.0 14.0 0.00 0.24 0.00 63 1016.1
20260905120000 68 202 9.0 14.0 0.00 0.24 0.00 63 1016.2
20260905115800 69 202 8.0 14.0 0.00 0.24 0.00 63 1016.2
20260905115610 69 225 8.0 13.0 0.00 0.24 0.00 63 1016.3
20260905115415 69 225 8.0 12.0 0.00 0.24 0.00 64 1016.2
20260905115225 69 225 8.0 12.0 0.00 0.24 0.00 63 1016.2
20260905115035 69 248 8.0 12.0 0.00 0.24 0.00 62 1016.1
20260905114855 69 225 9.0 15.0 0.00 0.24 0.00 62 1016.2
20260905114715 69 202 9.0 15.0 0.00 0.24 0.00 61 1016.2
20260905114530 68 180 8.0 15.0 0.00 0.24 0.00 60 1016.2
20260905114344 68 248 8.0 12.0 0.00 0.24 0.00 59 1016.3
20260905114205 68 225 8.0 12.0 0.00 0.24 0.00 62 1016.2
20260905114015 67 225 8.0 16.0 0.00 0.24 0.00 61 1016.1
20260905113815 67 315 9.0 12.0 0.00 0.24 0.00 62 1016.2
20260905113625 67 202 9.0 18.0 0.00 0.24 0.00 64 1016.2
20260905113430 67 135 9.0 18.0 0.00 0.24 0.00 64 1016.2
20260905113243 67 225 10.0 20.0 0.00 0.24 0.00 64 1016.3
20260905113050 67 248 10.0 20.0 0.00 0.24 0.00 64 1016.3
20260905112850 67 270 11.0 20.0 0.00 0.24 0.00 63 1016.2
20260905112655 67 225 10.0 20.0 0.00 0.24 0.00 63 1016.3
20260905112515 67 248 11.0 20.0 0.00 0.24 0.00 62 1016.2
20260905112334 67 225 11.0 20.0 0.00 0.24 0.00 62 1016.1
20260905112140 67 225 10.0 17.0 0.00 0.24 0.00 62 1016.3
20260905112013 68 292 10.0 17.0 0.00 0.24 0.00 62 1016.2
20260905111958 68 248 10.0 17.0 0.00 0.24 0.00 62 1016.3
20260905111816 68 292 10.0 17.0 0.00 0.24 0.00 62 1016.2
20260905111625 68 292 10.0 17.0 0.00 0.24 0.00 61 1016.2
20260905111440 68 248 10.0 18.0 0.00 0.24 0.00 60 1016.2
20260905111300 68 248 10.0 18.0 0.00 0.24 0.00 59 1016.2
20260905111113 68 225 10.0 24.0 0.00 0.24 0.00 61 1016.1
20260905110922 69 225 10.0 24.0 0.00 0.24 0.00 60 1016.1
20260905110746 69 225 10.0 24.0 0.00 0.24 0.00 60 1016.2
20260905110557 69 315 9.0 12.0 0.00 0.24 0.00 58 1016.0
20260905110415 69 202 10.0 15.0 0.00 0.24 0.00 59 1016.1
20260905110230 69 292 9.0 17.0 0.00 0.24 0.00 59 1016.0
20260905110035 69 270 9.0 17.0 0.00 0.24 0.00 60 1016.0
20260905105855 69 292 9.0 17.0 0.00 0.24 0.00 60 1016.1
20260905105705 69 270 9.0 16.0 0.00 0.24 0.00 59 1016.1
20260905105506 69 292 9.0 16.0 0.00 0.24 0.00 60 1016.1
20260905105330 69 248 9.0 16.0 0.00 0.24 0.00 59 1016.0
20260905105140 68 270 9.0 16.0 0.00 0.24 0.00 59 1016.0
20260905104950 68 248 9.0 13.0 0.00 0.24 0.00 59 1016.0
20260905104848 68 292 9.0 13.0 0.00 0.24 0.00 61 1016.1
20260905104755 68 292 9.0 13.0 0.00 0.24 0.00 61 1016.1
20260905104605 68 248 9.0 13.0 0.00 0.24 0.00 61 1016.0
20260905104415 68 315 9.0 14.0 0.00 0.24 0.00 61 1016.0
20260905104226 68 225 9.0 14.0 0.00 0.24 0.00 61 1016.1
20260905104030 68 248 9.0 15.0 0.00 0.24 0.00 62 1016.0
20260905103840 68 270 10.0 15.0 0.00 0.24 0.00 62 1016.0
20260905103652 68 202 9.0 16.0 0.00 0.24 0.00 62 1016.1
20260905103500 68 248 9.0 16.0 0.00 0.24 0.00 63 1016.1
20260905103315 68 248 9.0 16.0 0.00 0.24 0.00 62 1016.3
20260905103120 67 292 9.0 15.0 0.00 0.24 0.00 61 1016.1
20260905103018 67 270 9.0 15.0 0.00 0.24 0.00 62 1016.2
20260905102940 67 270 9.0 15.0 0.00 0.24 0.00 62 1016.2
20260905102750 67 202 10.0 18.0 0.00 0.24 0.00 62 1016.3
20260905102614 67 202 11.0 18.0 0.00 0.24 0.00 62 1016.2
20260905102439 67 270 11.0 18.0 0.00 0.24 0.00 62 1016.2
20260905102250 67 248 11.0 17.0 0.00 0.24 0.00 63 1016.3
20260905102110 67 270 10.0 17.0 0.00 0.24 0.00 64 1016.2
20260905101920 67 248 10.0 17.0 0.00 0.24 0.00 64 1016.3
20260905101742 67 248 10.0 18.0 0.00 0.24 0.00 64 1016.2
20260905101600 67 202 10.0 18.0 0.00 0.24 0.00 65 1016.3
20260905101415 68 225 10.0 18.0 0.00 0.24 0.00 64 1016.0
20260905101220 68 248 10.0 17.0 0.00 0.24 0.00 63 1016.1
20260905101025 68 248 10.0 17.0 0.00 0.24 0.00 61 1016.1
20260905100842 68 225 10.0 16.0 0.00 0.24 0.00 60 1016.0
20260905100655 68 225 10.0 15.0 0.00 0.24 0.00 62 1016.1
20260905100500 67 202 10.0 18.0 0.00 0.24 0.00 62 1016.1
20260905100320 67 225 9.0 19.0 0.00 0.24 0.00 63 1016.1
20260905100138 67 292 9.0 19.0 0.00 0.24 0.00 63 1016.2
20260905095937 67 248 9.0 18.0 0.00 0.24 0.00 64 1016.2
20260905095745 67 202 9.0 18.0 0.00 0.24 0.00 63 1016.3
20260905095610 67 292 9.0 17.0 0.00 0.24 0.00 64 1016.3
20260905095415 67 270 9.0 19.0 0.00 0.24 0.00 64 1016.3
20260905095220 67 270 8.0 19.0 0.00 0.24 0.00 65 1016.3
20260905095035 66 270 7.0 9.0 0.00 0.24 0.00 69 1016.4
20260905094851 66 270 7.0 9.0 0.00 0.24 0.00 69 1016.4
20260905094709 66 270 7.0 9.0 0.00 0.24 0.00 69 1016.4
20260905094515 66 270 7.0 9.0 0.00 0.24 0.00 69 1016.3
20260905094344 66 270 9.0 15.0 0.00 0.24 0.00 69 1016.3
20260905094017 66 292 9.0 15.0 0.00 0.24 0.00 69 1016.3
20260905093823 66 225 9.0 17.0 0.00 0.24 0.00 69 1016.4
20260905093802 66 270 10.0 17.0 0.00 0.24 0.00 69 1016.3
20260905093635 66 248 9.0 17.0 0.00 0.24 0.00 69 1016.4
20260905093455 66 270 9.0 17.0 0.00 0.24 0.00 69 1016.5
20260905093305 66 248 9.0 15.0 0.00 0.24 0.00 69 1016.4
20260905093127 66 225 9.0 16.0 0.00 0.24 0.00 69 1016.4
20260905092935 66 270 9.0 16.0 0.00 0.24 0.00 68 1016.4
20260905092750 66 180 9.0 16.0 0.00 0.24 0.00 69 1016.4
20260905092612 66 248 9.0 12.0 0.00 0.24 0.00 68 1016.4
20260905092420 66 202 9.0 16.0 0.00 0.24 0.00 68 1016.3
20260905092235 66 225 9.0 17.0 0.00 0.24 0.00 68 1016.3
20260905092055 66 270 9.0 17.0 0.00 0.24 0.00 68 1016.3
20260905091919 66 225 9.0 17.0 0.00 0.24 0.00 69 1016.4
20260905091725 66 270 9.0 15.0 0.00 0.24 0.00 69 1016.3
20260905091550 66 225 8.0 15.0 0.00 0.24 0.00 69 1016.3
20260905091410 66 248 8.0 14.0 0.00 0.24 0.00 69 1016.3
20260905091230 66 270 9.0 14.0 0.00 0.24 0.00 69 1016.2
20260905091040 66 248 9.0 14.0 0.00 0.24 0.00 69 1016.3
20260905090848 66 292 9.0 18.0 0.00 0.24 0.00 69 1016.3
20260905090700 66 248 10.0 18.0 0.00 0.24 0.00 69 1016.3
20260905090503 66 292 9.0 18.0 0.00 0.24 0.00 69 1016.2
20260905090347 66 225 9.0 16.0 0.00 0.24 0.00 68 1016.3
20260905090320 66 292 9.0 16.0 0.00 0.24 0.00 68 1016.2
20260905090130 66 292 9.0 16.0 0.00 0.24 0.00 69 1016.1
20260905085945 66 270 8.0 13.0 0.00 0.24 0.00 68 1016.3
20260905085755 66 292 8.0 12.0 0.00 0.24 0.00 69 1016.1
20260905085602 66 248 8.0 17.0 0.00 0.24 0.00 69 1016.2
20260905085415 66 180 8.0 17.0 0.00 0.24 0.00 70 1016.2
20260905085220 66 225 8.0 17.0 0.00 0.24 0.00 70 1016.3
20260905085024 66 248 8.0 11.0 0.00 0.24 0.00 69 1016.2
20260905084835 66 270 8.0 15.0 0.00 0.24 0.00 69 1016.0
20260905084655 66 225 9.0 15.0 0.00 0.24 0.00 68 1016.1
20260905084608 66 248 9.0 15.0 0.00 0.24 0.00 69 1016.1
20260905084500 66 248 9.0 15.0 0.00 0.24 0.00 69 1016.2
20260905084300 65 292 8.0 15.0 0.00 0.24 0.00 69 1016.0
20260905084120 65 270 8.0 15.0 0.00 0.24 0.00 70 1015.9
20260905083924 65 202 8.0 15.0 0.00 0.24 0.00 71 1016.0
20260905083740 65 225 9.0 15.0 0.00 0.24 0.00 71 1016.0
20260905083602 65 248 8.0 15.0 0.00 0.24 0.00 70 1016.0
20260905083420 65 248 8.0 15.0 0.00 0.24 0.00 71 1016.0
20260905083232 65 270 9.0 15.0 0.00 0.24 0.00 70 1016.1
20260905083055 65 292 8.0 14.0 0.00 0.24 0.00 72 1016.1
20260905082915 65 270 8.0 14.0 0.00 0.24 0.00 71 1016.1
20260905082742 65 248 8.0 10.0 0.00 0.24 0.00 73 1016.0
20260905082720 65 135 9.0 12.0 0.00 0.24 0.00 73 1016.0
20260905082530 65 225 9.0 12.0 0.00 0.24 0.00 73 1016.0
20260905082335 65 248 8.0 12.0 0.00 0.24 0.00 74 1016.0
20260905082139 65 225 8.0 15.0 0.00 0.24 0.00 73 1016.0
20260905081940 65 292 8.0 15.0 0.00 0.24 0.00 73 1016.0
20260905081752 65 248 8.0 14.0 0.00 0.24 0.00 73 1016.1
20260905081610 65 225 7.0 13.0 0.00 0.24 0.00 73 1016.0
20260905081420 65 248 7.0 12.0 0.00 0.24 0.00 75 1016.0
20260905081240 65 225 7.0 12.0 0.00 0.24 0.00 75 1016.0
20260905081055 64 270 8.0 12.0 0.00 0.24 0.00 75 1016.0
20260905080905 64 292 7.0 10.0 0.00 0.24 0.00 75 1016.0
20260905080726 64 225 7.0 10.0 0.00 0.24 0.00 75 1016.0
20260905080545 64 270 7.0 10.0 0.00 0.24 0.00 76 1016.0
20260905080350 64 292 7.0 10.0 0.00 0.24 0.00 76 1015.9
20260905080150 64 248 7.0 10.0 0.00 0.24 0.00 76 1016.0
20260905080000 64 292 7.0 11.0 0.00 0.24 0.00 76 1015.9
20260905075811 64 248 7.0 11.0 0.00 0.24 0.00 77 1015.9
20260905075620 64 315 7.0 12.0 0.00 0.24 0.00 77 1015.8
20260905075440 64 225 8.0 12.0 0.00 0.24 0.00 77 1015.9
20260905075300 64 292 8.0 12.0 0.00 0.24 0.00 78 1015.8
20260905075110 64 180 8.0 12.0 0.00 0.24 0.00 77 1015.8
20260905074920 64 270 8.0 12.0 0.00 0.24 0.00 77 1015.8
20260905074725 64 202 7.0 12.0 0.00 0.24 0.00 78 1015.8
20260905074550 63 248 7.0 12.0 0.00 0.24 0.00 78 1015.8
20260905074410 63 270 7.0 12.0 0.00 0.24 0.00 77 1015.8
20260905074224 63 225 7.0 11.0 0.00 0.24 0.00 78 1015.7
20260905074044 63 248 8.0 13.0 0.00 0.24 0.00 78 1015.7
20260905073849 63 225 8.0 13.0 0.00 0.24 0.00 79 1015.7
20260905073708 63 248 8.0 16.0 0.00 0.24 0.00 79 1015.8
20260905073525 63 248 8.0 16.0 0.00 0.24 0.00 80 1015.7
20260905073345 63 225 8.0 16.0 0.00 0.24 0.00 79 1015.7
20260905073135 63 202 7.0 15.0 0.00 0.24 0.00 79 1015.8
20260905072939 63 292 7.0 15.0 0.00 0.24 0.00 79 1015.7
20260905072750 63 225 7.0 15.0 0.00 0.24 0.00 80 1015.6
20260905072613 63 225 7.0 15.0 0.00 0.24 0.00 79 1015.7
20260905072434 63 270 7.0 10.0 0.00 0.24 0.00 80 1015.7
20260905072245 63 248 7.0 10.0 0.00 0.24 0.00 80 1015.6
20260905072104 63 248 7.0 11.0 0.00 0.24 0.00 80 1015.6
20260905071910 62 248 7.0 11.0 0.00 0.24 0.00 80 1015.6
20260905071839 62 202 7.0 11.0 0.00 0.24 0.00 80 1015.6
20260905071714 62 270 7.0 12.0 0.00 0.24 0.00 81 1015.6
20260905071520 62 270 7.0 12.0 0.00 0.24 0.00 81 1015.5
20260905071335 62 270 7.0 12.0 0.00 0.24 0.00 81 1015.5
20260905071155 62 202 7.0 11.0 0.00 0.24 0.00 81 1015.4
20260905071005 62 248 7.0 11.0 0.00 0.24 0.00 81 1015.5
20260905070820 62 248 7.0 10.0 0.00 0.24 0.00 82 1015.5
20260905070639 62 292 7.0 10.0 0.00 0.24 0.00 82 1015.4
20260905070448 62 202 7.0 12.0 0.00 0.24 0.00 82 1015.4
20260905070305 62 225 7.0 14.0 0.00 0.24 0.00 82 1015.4
20260905070251 62 248 7.0 14.0 0.00 0.24 0.00 82 1015.4
20260905070125 62 225 7.0 14.0 0.00 0.24 0.00 82 1015.4
20260905065935 62 270 7.0 14.0 0.00 0.24 0.00 82 1015.4
20260905065750 62 248 7.0 11.0 0.00 0.24 0.00 82 1015.4
20260905065610 61 225 7.0 11.0 0.00 0.24 0.00 83 1015.4
20260905065424 61 270 7.0 11.0 0.00 0.24 0.00 82 1015.3
20260905065235 61 248 8.0 11.0 0.00 0.24 0.00 83 1015.4
20260905065038 61 248 7.0 11.0 0.00 0.24 0.00 83 1015.4
20260905064844 61 270 7.0 11.0 0.00 0.24 0.00 83 1015.3
20260905064705 61 225 6.0 11.0 0.00 0.24 0.00 83 1015.4
20260905064515 61 202 6.0 12.0 0.00 0.24 0.00 83 1015.4
20260905064417 61 202 6.0 12.0 0.00 0.24 0.00 83 1015.4
20260905064358 61 248 6.0 12.0 0.00 0.24 0.00 83 1015.4
20260905064155 61 248 6.0 12.0 0.00 0.24 0.00 83 1015.4
20260905063955 61 292 6.0 12.0 0.00 0.24 0.00 84 1015.4
20260905063804 61 292 7.0 12.0 0.00 0.24 0.00 84 1015.3
20260905063611 61 158 7.0 9.0 0.00 0.24 0.00 84 1015.3
20260905063410 61 225 7.0 11.0 0.00 0.24 0.00 84 1015.3
20260905063230 61 248 7.0 15.0 0.00 0.24 0.00 84 1015.3
20260905063035 60 248 7.0 15.0 0.00 0.24 0.00 84 1015.3
20260905062900 60 248 6.0 10.0 0.00 0.24 0.00 84 1015.4
20260905062704 60 180 6.0 10.0 0.00 0.24 0.00 85 1015.3
20260905062646 60 270 6.0 10.0 0.00 0.24 0.00 85 1015.3
20260905062525 60 202 6.0 10.0 0.00 0.24 0.00 85 1015.3
20260905062340 60 225 6.0 10.0 0.00 0.24 0.00 85 1015.3
20260905062200 60 202 6.0 10.0 0.00 0.24 0.00 85 1015.3
20260905062020 60 292 6.0 8.0 0.00 0.24 0.00 85 1015.2
20260905061844 60 225 6.0 8.0 0.00 0.24 0.00 85 1015.2
20260905061650 60 270 6.0 9.0 0.00 0.24 0.00 86 1015.1
20260905061500 60 270 6.0 10.0 0.00 0.24 0.00 86 1015.1
20260905061315 60 225 6.0 10.0 0.00 0.24 0.00 86 1015.1
20260905061135 60 248 6.0 11.0 0.00 0.24 0.00 86 1015.1
20260905061031 60 248 6.0 11.0 0.00 0.24 0.00 86 1015.1
20260905060944 60 248 6.0 11.0 0.00 0.24 0.00 86 1015.1
20260905060800 60 270 6.0 11.0 0.00 0.24 0.00 86 1015.1
20260905060610 60 225 6.0 8.0 0.00 0.24 0.00 86 1015.1
20260905060435 60 270 6.0 10.0 0.00 0.24 0.00 86 1015.0
20260905060255 59 248 6.0 10.0 0.00 0.24 0.00 87 1015.0
20260905060114 59 248 6.0 10.0 0.00 0.24 0.00 86 1015.0
20260905055925 59 225 5.0 8.0 0.00 0.24 0.00 87 1015.0
20260905055735 59 292 5.0 8.0 0.00 0.24 0.00 87 1015.0
20260905055550 59 248 6.0 8.0 0.00 0.24 0.00 87 1014.9
20260905055456 59 225 6.0 8.0 0.00 0.24 0.00 87 1015.0
20260905055410 59 248 6.0 8.0 0.00 0.24 0.00 87 1015.0
20260905055223 59 292 6.0 8.0 0.00 0.24 0.00 87 1014.9
20260905055040 59 248 5.0 8.0 0.00 0.24 0.00 88 1015.0
20260905054859 59 270 5.0 7.0 0.00 0.24 0.00 88 1015.0
20260905054720 59 292 5.0 7.0 0.00 0.24 0.00 88 1015.0
20260905054520 59 248 6.0 7.0 0.00 0.24 0.00 88 1014.9
20260905054330 59 248 5.0 7.0 0.00 0.24 0.00 88 1015.0
20260905054150 59 270 5.0 9.0 0.00 0.24 0.00 88 1015.0
20260905054003 59 248 6.0 9.0 0.00 0.24 0.00 88 1014.9
20260905053820 59 248 6.0 9.0 0.00 0.24 0.00 88 1014.9
20260905053652 59 202 5.0 8.0 0.00 0.24 0.00 88 1014.9
20260905053624 59 248 5.0 8.0 0.00 0.24 0.00 88 1014.9
20260905053430 58 248 5.0 10.0 0.00 0.24 0.00 88 1014.9
20260905053250 58 225 5.0 10.0 0.00 0.24 0.00 88 1014.9
20260905053055 58 248 5.0 8.0 0.00 0.24 0.00 89 1014.9
20260905052900 58 270 4.0 6.0 0.00 0.24 0.00 89 1014.9
20260905052714 58 225 4.0 8.0 0.00 0.24 0.00 89 1014.8
20260905052530 58 248 4.0 8.0 0.00 0.24 0.00 89 1014.8
20260905052340 58 202 5.0 8.0 0.00 0.24 0.00 89 1014.8
20260905052200 58 225 5.0 7.0 0.00 0.24 0.00 89 1014.7
20260905052049 58 292 5.0 7.0 0.00 0.24 0.00 89 1014.7
20260905052015 58 292 5.0 7.0 0.00 0.24 0.00 89 1014.7
20260905051835 58 270 5.0 7.0 0.00 0.24 0.00 89 1014.7
20260905051635 58 270 5.0 7.0 0.00 0.24 0.00 89 1014.7
20260905051450 58 315 5.0 7.0 0.00 0.24 0.00 89 1014.7
20260905051253 58 248 5.0 8.0 0.00 0.24 0.00 89 1014.8
20260905051110 58 225 5.0 8.0 0.00 0.24 0.00 89 1014.8
20260905050930 58 202 5.0 8.0 0.00 0.24 0.00 89 1014.8
20260905050753 58 248 5.0 6.0 0.00 0.24 0.00 89 1014.7
20260905050559 58 202 5.0 8.0 0.00 0.24 0.00 89 1014.6
20260905050404 58 248 5.0 8.0 0.00 0.24 0.00 89 1014.7
20260905050343 58 270 5.0 8.0 0.00 0.24 0.00 89 1014.7
20260905050225 58 225 5.0 8.0 0.00 0.24 0.00 90 1014.6
20260905050035 58 270 5.0 8.0 0.00 0.24 0.00 90 1014.6
20260905045855 58 202 5.0 8.0 0.00 0.24 0.00 90 1014.6
20260905045715 58 270 4.0 6.0 0.00 0.24 0.00 90 1014.7
20260905045520 58 270 5.0 6.0 0.00 0.24 0.00 90 1014.6
20260905045341 58 248 5.0 6.0 0.00 0.24 0.00 90 1014.6
20260905045205 58 248 5.0 8.0 0.00 0.24 0.00 90 1014.6
20260905045025 58 248 5.0 8.0 0.00 0.24 0.00 90 1014.5
20260905044835 58 248 4.0 8.0 0.00 0.24 0.00 90 1014.5
20260905044651 58 225 4.0 8.0 0.00 0.24 0.00 90 1014.5
20260905044523 58 248 4.0 8.0 0.00 0.24 0.00 90 1014.4
20260905044455 58 292 4.0 8.0 0.00 0.24 0.00 90 1014.4
20260905044315 58 225 4.0 7.0 0.00 0.24 0.00 90 1014.5
20260905044125 58 225 5.0 7.0 0.00 0.24 0.00 90 1014.5
20260905043930 58 248 5.0 7.0 0.00 0.24 0.00 90 1014.5
20260905043740 58 225 5.0 7.0 0.00 0.24 0.00 90 1014.4
20260905043602 58 270 6.0 7.0 0.00 0.24 0.00 90 1014.4
20260905043415 58 225 6.0 10.0 0.00 0.24 0.00 90 1014.4
20260905043230 58 270 6.0 10.0 0.00 0.24 0.00 89 1014.5
20260905043044 58 248 6.0 10.0 0.00 0.24 0.00 89 1014.4
20260905042855 58 225 6.0 9.0 0.00 0.24 0.00 89 1014.4
20260905042803 58 225 6.0 9.0 0.00 0.24 0.00 90 1014.4
20260905042700 58 225 6.0 9.0 0.00 0.24 0.00 90 1014.4
20260905042500 58 248 6.0 9.0 0.00 0.24 0.00 90 1014.3
20260905042300 58 270 5.0 7.0 0.00 0.24 0.00 90 1014.3
20260905042119 58 270 5.0 9.0 0.00 0.24 0.00 90 1014.2
20260905041940 58 270 5.0 9.0 0.00 0.24 0.00 90 1014.2
20260905041747 58 248 5.0 9.0 0.00 0.24 0.00 90 1014.2
20260905041555 58 248 5.0 7.0 0.00 0.24 0.00 90 1014.2
20260905041359 58 292 5.0 7.0 0.00 0.24 0.00 90 1014.2
20260905041200 58 270 5.0 8.0 0.00 0.24 0.00 90 1014.1
20260905041015 58 225 5.0 6.0 0.00 0.24 0.00 90 1014.2
20260905040917 58 270 6.0 7.0 0.00 0.24 0.00 90 1014.1
20260905040839 58 270 6.0 7.0 0.00 0.24 0.00 90 1014.1
20260905040704 58 270 6.0 9.0 0.00 0.24 0.00 89 1014.1
20260905040520 58 315 6.0 9.0 0.00 0.24 0.00 89 1014.1
20260905040340 58 270 6.0 9.0 0.00 0.24 0.00 89 1014.1
20260905040153 58 248 6.0 9.0 0.00 0.24 0.00 89 1014.1
20260905040015 58 292 6.0 9.0 0.00 0.24 0.00 89 1014.1
20260905035830 58 248 6.0 10.0 0.00 0.24 0.00 89 1014.1
20260905035638 58 248 6.0 10.0 0.00 0.24 0.00 89 1014.0
20260905035455 58 225 6.0 10.0 0.00 0.24 0.00 89 1014.1
20260905035315 58 248 6.0 10.0 0.00 0.24 0.00 89 1014.1
20260905035219 59 292 6.0 10.0 0.00 0.24 0.00 89 1014.1
20260905035130 59 225 6.0 10.0 0.00 0.24 0.00 89 1014.0
20260905034930 59 248 6.0 10.0 0.00 0.24 0.00 89 1014.0
20260905034730 59 248 5.0 10.0 0.00 0.24 0.00 89 1013.9
20260905034538 59 248 5.0 10.0 0.00 0.24 0.00 89 1014.0
20260905034355 59 270 5.0 10.0 0.00 0.24 0.00 89 1014.0
20260905034200 59 248 5.0 10.0 0.00 0.24 0.00 89 1014.0
20260905034000 59 292 6.0 10.0 0.00 0.24 0.00 89 1013.8
20260905033810 59 248 6.0 8.0 0.00 0.24 0.00 89 1013.8
20260905033615 59 292 6.0 9.0 0.00 0.24 0.00 89 1013.9
20260905033527 59 248 6.0 9.0 0.00 0.24 0.00 89 1013.8
20260905033430 59 248 6.0 9.0 0.00 0.24 0.00 89 1013.8
20260905033233 59 292 6.0 9.0 0.00 0.24 0.00 88 1013.8
20260905033101 59 225 6.0 8.0 0.00 0.24 0.00 89 1013.8
20260905032923 59 248 6.0 10.0 0.00 0.24 0.00 88 1013.7
20260905032801 59 225 6.0 12.0 0.00 0.24 0.00 88 1013.7
20260905032531 59 225 6.0 12.0 0.00 0.24 0.00 88 1013.7
20260905032355 59 248 6.0 12.0 0.00 0.24 0.00 88 1013.6
20260905032205 59 248 6.0 12.0 0.00 0.24 0.00 88 1013.6
20260905032024 59 248 6.0 12.0 0.00 0.24 0.00 88 1013.5
20260905031909 59 202 6.0 12.0 0.00 0.24 0.00 88 1013.6
20260905031839 59 202 6.0 10.0 0.00 0.24 0.00 88 1013.7
20260905031648 59 180 6.0 10.0 0.00 0.24 0.00 88 1013.6
20260905031502 60 292 7.0 9.0 0.00 0.24 0.00 88 1013.6
20260905031327 60 292 7.0 9.0 0.00 0.24 0.00 88 1013.6
20260905031130 60 248 7.0 11.0 0.00 0.24 0.00 88 1013.6
20260905030955 60 225 7.0 11.0 0.00 0.24 0.00 88 1013.6
20260905030803 60 248 7.0 15.0 0.00 0.24 0.00 87 1013.5
20260905030708 60 248 7.0 15.0 0.00 0.24 0.00 87 1013.5
20260905030415 60 248 7.0 15.0 0.00 0.24 0.00 87 1013.5
20260905030220 60 292 7.0 15.0 0.00 0.24 0.00 88 1013.4
20260905030158 60 225 6.0 10.0 0.00 0.24 0.00 88 1013.5
20260905030024 60 225 6.0 10.0 0.00 0.24 0.00 88 1013.4
20260905025839 60 225 6.0 10.0 0.00 0.24 0.00 88 1013.4
20260905025650 60 270 7.0 10.0 0.00 0.24 0.00 88 1013.4
20260905025507 60 248 6.0 10.0 0.00 0.24 0.00 88 1013.4
20260905025324 60 270 6.0 10.0 0.00 0.24 0.00 88 1013.3
20260905025130 60 225 6.0 10.0 0.00 0.24 0.00 88 1013.2
20260905024945 60 225 7.0 10.0 0.00 0.24 0.00 88 1013.2
20260905024804 60 270 6.0 10.0 0.00 0.24 0.00 88 1013.2
20260905024610 60 248 7.0 14.0 0.00 0.24 0.00 88 1013.3
20260905024431 60 270 7.0 14.0 0.00 0.24 0.00 88 1013.3
20260905024239 60 248 7.0 14.0 0.00 0.24 0.00 88 1013.2
20260905024055 60 248 6.0 11.0 0.00 0.24 0.00 88 1013.2
20260905023855 60 270 6.0 11.0 0.00 0.24 0.00 88 1013.2
20260905023715 60 270 6.0 11.0 0.00 0.24 0.00 88 1013.2
20260905023520 60 225 6.0 9.0 0.00 0.24 0.00 88 1013.2
20260905023325 60 248 6.0 9.0 0.00 0.24 0.00 88 1013.2
20260905023130 60 225 6.0 9.0 0.00 0.24 0.00 88 1013.1
20260905022945 60 248 6.0 8.0 0.00 0.24 0.00 88 1013.1
20260905022823 60 292 6.0 8.0 0.00 0.24 0.00 88 1013.1
20260905022754 60 292 6.0 8.0 0.00 0.24 0.00 88 1013.1
20260905022600 60 225 6.0 10.0 0.00 0.24 0.00 88 1013.2
20260905022400 60 292 6.0 10.0 0.00 0.24 0.00 89 1013.2
20260905022200 60 248 6.0 10.0 0.00 0.24 0.00 88 1013.1
20260905022020 60 225 6.0 11.0 0.00 0.24 0.00 89 1013.2
20260905021835 60 270 6.0 11.0 0.00 0.24 0.00 89 1013.1
20260905021650 60 225 6.0 10.0 0.00 0.24 0.00 89 1013.1
20260905021502 60 248 6.0 10.0 0.00 0.24 0.00 89 1013.1
20260905021313 60 248 6.0 10.0 0.00 0.24 0.00 89 1013.1
20260905021124 60 225 6.0 11.0 0.00 0.24 0.00 88 1013.0
20260905021015 60 248 6.0 11.0 0.00 0.24 0.00 88 1012.9
20260905020925 60 225 6.0 11.0 0.00 0.24 0.00 88 1013.0
20260905020750 60 225 6.0 11.0 0.00 0.24 0.00 88 1013.0
20260905020615 60 225 6.0 11.0 0.00 0.24 0.00 88 1013.0
20260905020415 60 248 6.0 9.0 0.00 0.24 0.00 88 1013.0
20260905020235 60 270 6.0 9.0 0.00 0.24 0.00 88 1013.0
20260905020043 60 248 6.0 9.0 0.00 0.24 0.00 88 1012.8
20260905015900 60 248 6.0 9.0 0.00 0.24 0.00 88 1012.9
20260905015720 60 248 6.0 9.0 0.00 0.24 0.00 88 1012.8
20260905015540 60 225 6.0 9.0 0.00 0.24 0.00 88 1012.9
20260905015400 60 225 6.0 9.0 0.00 0.24 0.00 88 1012.9
20260905015218 60 270 6.0 9.0 0.00 0.24 0.00 88 1012.8
20260905015039 60 292 6.0 9.0 0.00 0.24 0.00 88 1012.8
20260905014848 60 248 5.0 9.0 0.00 0.24 0.00 88 1012.9
20260905014705 60 248 5.0 9.0 0.00 0.24 0.00 88 1012.8
20260905014507 60 225 5.0 9.0 0.00 0.24 0.00 88 1012.8
20260905014315 60 270 5.0 9.0 0.00 0.24 0.00 88 1012.8
20260905014120 60 202 6.0 9.0 0.00 0.24 0.00 88 1012.7
20260905013930 60 225 6.0 9.0 0.00 0.24 0.00 87 1012.9
20260905013755 60 225 6.0 9.0 0.00 0.24 0.00 87 1012.8
20260905013620 60 292 6.0 9.0 0.00 0.24 0.00 87 1012.9
20260905013430 60 202 6.0 9.0 0.00 0.24 0.00 87 1012.8
20260905013404 60 248 6.0 9.0 0.00 0.24 0.00 87 1012.8
20260905013248 60 292 6.0 10.0 0.00 0.24 0.00 87 1012.8
20260905013114 60 270 6.0 10.0 0.00 0.24 0.00 87 1012.8
20260905012924 60 202 6.0 10.0 0.00 0.24 0.00 87 1012.7
20260905012747 61 248 6.0 8.0 0.00 0.24 0.00 87 1012.8
20260905012610 61 248 6.0 9.0 0.00 0.24 0.00 87 1012.8
20260905012415 61 225 6.0 9.0 0.00 0.24 0.00 87 1012.8
20260905012221 61 225 6.0 9.0 0.00 0.24 0.00 87 1012.8
20260905012025 61 292 7.0 11.0 0.00 0.24 0.00 87 1012.7
20260905011838 61 248 7.0 11.0 0.00 0.24 0.00 86 1012.8
20260905011758 61 248 7.0 11.0 0.00 0.24 0.00 86 1012.8
20260905011644 61 270 7.0 11.0 0.00 0.24 0.00 87 1012.8
20260905011447 61 202 7.0 10.0 0.00 0.24 0.00 87 1012.8
20260905011310 61 292 7.0 10.0 0.00 0.24 0.00 87 1012.8
20260905011110 61 202 6.0 10.0 0.00 0.24 0.00 87 1012.8
20260905010920 61 202 6.0 10.0 0.00 0.24 0.00 87 1012.7
20260905010735 61 248 6.0 10.0 0.00 0.24 0.00 87 1012.6
20260905010540 61 202 6.0 11.0 0.00 0.24 0.00 87 1012.6
20260905010355 61 180 6.0 11.0 0.00 0.24 0.00 87 1012.7
20260905010204 61 292 6.0 10.0 0.00 0.24 0.00 87 1012.8
20260905010010 61 248 6.0 11.0 0.00 0.24 0.00 87 1012.7
20260905005922 61 225 6.0 11.0 0.00 0.24 0.00 87 1012.6
20260905005820 61 292 6.0 11.0 0.00 0.24 0.00 87 1012.7
20260905005640 61 248 6.0 11.0 0.00 0.24 0.00 87 1012.7
20260905005500 61 248 6.0 9.0 0.00 0.24 0.00 88 1012.6
20260905005315 61 292 7.0 10.0 0.00 0.24 0.00 87 1012.7
20260905004810 61 225 7.0 11.0 0.00 0.24 0.00 88 1012.7
20260905004630 61 292 6.0 11.0 0.00 0.24 0.00 88 1012.7
20260905004435 61 248 6.0 11.0 0.00 0.24 0.00 88 1012.7
20260905004318 61 248 6.0 11.0 0.00 0.24 0.00 89 1012.7
20260905004245 61 248 6.0 11.0 0.00 0.24 0.00 89 1012.7
20260905004055 61 225 6.0 11.0 0.00 0.24 0.00 89 1012.7
20260905003905 61 248 6.0 11.0 0.00 0.24 0.00 89 1012.6
20260905003714 61 225 6.0 11.0 0.00 0.24 0.00 89 1012.5
20260905003515 61 270 5.0 9.0 0.00 0.24 0.00 90 1012.5
20260905003325 61 270 5.0 9.0 0.00 0.24 0.00 90 1012.5
20260905003140 61 225 6.0 9.0 0.00 0.24 0.00 90 1012.5
20260905002945 61 202 6.0 9.0 0.00 0.24 0.00 90 1012.5
20260905002743 61 270 5.0 8.0 0.00 0.24 0.00 90 1012.4
20260905002617 61 248 5.0 8.0 0.00 0.24 0.00 90 1012.5
20260905002600 61 270 5.0 8.0 0.00 0.24 0.00 90 1012.5
20260905002405 61 225 5.0 8.0 0.00 0.24 0.00 90 1012.4
20260905002230 61 248 5.0 7.0 0.00 0.24 0.00 90 1012.3
20260905002045 61 248 5.0 7.0 0.00 0.24 0.00 90 1012.4
20260905001910 61 315 5.0 7.0 0.00 0.24 0.00 90 1012.4
20260905001730 61 248 5.0 8.0 0.00 0.24 0.00 90 1012.4
20260905001530 61 270 5.0 8.0 0.00 0.24 0.00 90 1012.3
20260905001330 61 270 5.0 8.0 0.00 0.24 0.00 90 1012.3
20260905001148 61 225 5.0 7.0 0.00 0.24 0.00 90 1012.3
20260905001000 61 292 5.0 7.0 0.00 0.24 0.00 90 1012.2
20260905000800 61 292 5.0 7.0 0.00 0.24 0.00 90 1012.3
20260905000721 61 202 4.0 7.0 0.00 0.24 0.00 90 1012.3
20260905000627 61 225 4.0 7.0 0.00 0.24 0.00 90 1012.2
20260905000459 61 225 4.0 7.0 0.00 0.24 0.00 90 1012.2
20260905000318 61 248 4.0 7.0 0.00 0.24 0.00 90 1012.2
20260905000108 61 292 5.0 7.0 0.00 0.24 0.00 89 1012.3
20260904235730 61 292 5.0 7.0 0.00 0.24 0.00 89 1012.3
20260904235612 61 292 5.0 7.0 0.00 0.24 0.00 89 1012.3
20260904235150 61 292 5.0 7.0 0.00 0.24 0.00 89 1012.3
20260904234905 61 292 5.0 7.0 0.00 0.24 0.00 89 1012.3
20260904234844 61 292 5.0 7.0 0.00 0.24 0.00 89 1012.3
20260904234429 62 270 5.0 7.0 0.00 0.24 0.00 89 1012.3
20260904234230 62 270 5.0 7.0 0.00 0.24 0.00 89 1012.2
20260904234050 62 248 6.0 8.0 0.00 0.24 0.00 88 1012.2
20260904233954 62 248 6.0 8.0 0.00 0.24 0.00 88 1012.2
20260904233723 62 248 6.0 8.0 0.00 0.24 0.00 88 1012.2
20260904233532 62 270 6.0 9.0 0.00 0.24 0.00 89 1012.2
20260904233345 62 248 6.0 9.0 0.00 0.24 0.00 89 1012.2
20260904233158 62 292 6.0 11.0 0.00 0.24 0.00 88 1012.3
20260904233131 62 292 7.0 11.0 0.00 0.24 0.00 88 1012.3
20260904233005 62 292 7.0 11.0 0.00 0.24 0.00 89 1012.2
20260904232810 62 225 7.0 11.0 0.00 0.24 0.00 88 1012.1
20260904232628 62 225 6.0 10.0 0.00 0.24 0.00 89 1012.1
20260904232452 62 202 6.0 10.0 0.00 0.24 0.00 89 1012.1
20260904232309 62 248 6.0 10.0 0.00 0.24 0.00 89 1012.0
20260904232130 62 292 5.0 10.0 0.00 0.24 0.00 89 1012.1
20260904231949 62 225 5.0 8.0 0.00 0.24 0.00 88 1012.0
20260904231750 62 202 5.0 8.0 0.00 0.24 0.00 88 1012.0
20260904231605 62 270 5.0 6.0 0.00 0.24 0.00 88 1012.0
20260904231519 62 225 5.0 6.0 0.00 0.24 0.00 87 1011.9
20260904231415 62 248 6.0 7.0 0.00 0.24 0.00 87 1012.0
20260904231225 62 248 6.0 8.0 0.00 0.24 0.00 87 1012.1
20260904231045 62 248 6.0 10.0 0.00 0.24 0.00 87 1012.0
20260904230853 62 270 6.0 10.0 0.00 0.24 0.00 86 1011.9
20260904230700 62 225 6.0 10.0 0.00 0.24 0.00 86 1011.9
20260904230510 62 270 6.0 11.0 0.00 0.24 0.00 86 1012.0
20260904230322 62 248 6.0 11.0 0.00 0.24 0.00 86 1011.9
20260904230145 62 270 6.0 11.0 0.00 0.24 0.00 86 1011.7
20260904225945 62 225 6.0 10.0 0.00 0.24 0.00 86 1011.8
20260904225805 62 225 6.0 10.0 0.00 0.24 0.00 86 1011.8
20260904225615 62 158 7.0 8.0 0.00 0.24 0.00 87 1011.8
20260904225420 62 225 7.0 10.0 0.00 0.24 0.00 86 1011.7
20260904225230 62 225 7.0 11.0 0.00 0.24 0.00 87 1011.7
20260904225035 62 225 7.0 11.0 0.00 0.24 0.00 86 1011.7
20260904224850 62 292 7.0 11.0 0.00 0.24 0.00 87 1011.7
20260904224700 62 292 6.0 11.0 0.00 0.24 0.00 88 1011.7
20260904224505 62 225 6.0 10.0 0.00 0.24 0.00 89 1011.7
20260904224306 62 248 6.0 10.0 0.00 0.24 0.00 89 1011.7
20260904224202 62 225 6.0 10.0 0.00 0.24 0.00 89 1011.7
20260904224118 62 292 6.0 10.0 0.00 0.24 0.00 89 1011.7
20260904223940 62 248 6.0 9.0 0.00 0.24 0.00 90 1011.7
20260904223746 62 292 6.0 9.0 0.00 0.24 0.00 90 1011.7
20260904223610 62 270 6.0 9.0 0.00 0.24 0.00 90 1011.7
20260904223420 62 270 6.0 9.0 0.00 0.24 0.00 90 1011.7
20260904223240 62 248 6.0 10.0 0.00 0.24 0.00 90 1011.7
20260904223040 62 248 6.0 10.0 0.00 0.24 0.00 90 1011.6
20260904222848 62 248 6.0 10.0 0.00 0.24 0.00 90 1011.5
20260904222704 62 248 6.0 9.0 0.00 0.24 0.00 90 1011.5
20260904222537 62 248 6.0 9.0 0.00 0.24 0.00 90 1011.5
20260904222505 62 225 6.0 7.0 0.00 0.24 0.00 90 1011.4
20260904222325 62 248 5.0 9.0 0.00 0.24 0.00 90 1011.4
20260904222134 62 248 5.0 9.0 0.00 0.24 0.00 90 1011.5
20260904221934 62 270 6.0 9.0 0.00 0.24 0.00 90 1011.3
20260904221753 62 248 6.0 7.0 0.00 0.24 0.00 90 1011.3
20260904221614 62 248 6.0 8.0 0.00 0.24 0.00 90 1011.3
20260904221415 62 225 6.0 10.0 0.00 0.24 0.00 89 1011.2
20260904221215 62 225 6.0 10.0 0.00 0.24 0.00 89 1011.1
20260904221030 62 225 6.0 10.0 0.00 0.24 0.00 89 1011.0
20260904220835 62 248 6.0 11.0 0.00 0.24 0.00 89 1011.0
20260904220737 62 248 6.0 11.0 0.00 0.24 0.00 89 1010.9
20260904220639 62 248 6.0 11.0 0.00 0.24 0.00 89 1010.9
20260904220440 62 248 5.0 9.0 0.00 0.24 0.00 90 1010.8
20260904220255 62 202 6.0 11.0 0.00 0.24 0.00 90 1010.8
20260904220110 62 225 6.0 9.0 0.00 0.24 0.00 90 1010.8
20260904215913 62 270 6.0 10.0 0.00 0.24 0.24 90 1010.8
20260904215725 62 270 6.0 12.0 0.00 0.24 0.24 90 1010.8
20260904215540 62 202 6.0 12.0 0.00 0.24 0.24 90 1010.7
20260904215400 62 225 7.0 12.0 0.00 0.24 0.24 90 1010.8
20260904215220 62 248 7.0 11.0 0.00 0.24 0.24 91 1010.7
20260904215102 62 248 7.0 11.0 0.00 0.24 0.24 91 1010.6
20260904215030 62 248 7.0 11.0 0.00 0.24 0.24 91 1010.5
20260904214840 62 248 7.0 11.0 0.00 0.24 0.24 90 1010.6
20260904214645 62 270 7.0 11.0 0.00 0.24 0.24 91 1010.6
20260904214450 62 248 7.0 11.0 0.00 0.24 0.24 91 1010.5
20260904214305 62 202 6.0 10.0 0.00 0.24 0.24 91 1010.4
20260904214110 62 248 6.0 10.0 0.00 0.24 0.24 91 1010.3
20260904213920 62 202 7.0 10.0 0.00 0.24 0.24 91 1010.3
20260904213724 62 292 7.0 10.0 0.00 0.24 0.24 91 1010.2
20260904213535 62 225 7.0 10.0 0.00 0.24 0.24 91 1010.2
20260904213443 62 270 7.0 11.0 0.00 0.24 0.24 91 1010.2
20260904213350 62 292 7.0 11.0 0.00 0.24 0.24 91 1010.2
20260904213155 62 248 7.0 11.0 0.00 0.24 0.24 91 1010.2
20260904213002 62 225 7.0 11.0 0.00 0.24 0.24 91 1010.2
20260904212815 62 225 7.0 11.0 0.00 0.24 0.24 91 1010.2
20260904212635 62 248 6.0 9.0 0.00 0.24 0.24 91 1010.3
20260904212439 62 248 6.0 11.0 0.00 0.24 0.24 91 1010.1
20260904212254 62 248 6.0 11.0 0.00 0.24 0.24 91 1010.1
20260904212105 62 248 6.0 11.0 0.00 0.24 0.24 91 1010.1
20260904211917 62 292 6.0 11.0 0.00 0.24 0.24 92 1010.1
20260904211847 62 270 6.0 10.0 0.00 0.24 0.24 92 1010.2
20260904211742 62 225 6.0 10.0 0.00 0.24 0.24 91 1010.0
20260904211605 62 225 7.0 10.0 0.00 0.24 0.24 91 1010.1
20260904211420 62 225 7.0 10.0 0.00 0.24 0.24 91 1010.1
20260904211235 62 248 7.0 10.0 0.00 0.24 0.24 92 1009.9
20260904211042 62 248 7.0 10.0 0.00 0.24 0.24 92 1009.9
20260904210905 62 248 7.0 11.0 0.00 0.24 0.24 92 1009.9
20260904210705 62 248 7.0 11.0 0.00 0.24 0.24 92 1009.9
20260904210505 62 202 6.0 11.0 0.00 0.24 0.24 93 1009.9
20260904210310 62 225 6.0 8.0 0.00 0.24 0.24 93 1009.9
20260904210217 62 248 6.0 8.0 0.00 0.24 0.24 93 1009.9
20260904210130 62 270 6.0 8.0 0.00 0.24 0.24 93 1009.9
20260904205930 62 225 6.0 10.0 0.00 0.24 0.24 93 1009.9
20260904205742 62 270 6.0 10.0 0.00 0.24 0.24 94 1009.9
20260904205600 62 225 6.0 10.0 0.00 0.24 0.24 94 1009.8
20260904205410 62 270 6.0 10.0 0.00 0.24 0.24 94 1009.8
20260904205230 62 225 6.0 11.0 0.00 0.24 0.24 94 1009.8
20260904205050 62 248 6.0 11.0 0.00 0.24 0.24 94 1009.7
20260904204910 62 202 6.0 11.0 0.00 0.24 0.24 94 1009.6
20260904204730 62 270 6.0 11.0 0.00 0.24 0.24 94 1009.6
20260904204637 62 270 6.0 11.0 0.00 0.24 0.24 94 1009.6
20260904204530 62 270 6.0 8.0 0.00 0.24 0.24 94 1009.6
20260904204340 62 225 6.0 11.0 0.00 0.24 0.24 94 1009.5
20260904204200 62 248 6.0 11.0 0.00 0.24 0.24 94 1009.6
20260904204020 62 248 6.0 11.0 0.00 0.24 0.24 94 1009.6
20260904203820 62 180 6.0 9.0 0.00 0.24 0.24 94 1009.5
20260904203622 62 248 6.0 10.0 0.00 0.24 0.24 94 1009.4
20260904203440 62 292 6.0 10.0 0.00 0.24 0.24 95 1009.4
20260904203300 62 225 5.0 8.0 0.00 0.24 0.24 95 1009.3
20260904203110 62 248 5.0 8.0 0.00 0.24 0.24 95 1009.4
20260904202910 62 270 6.0 8.0 0.00 0.24 0.24 95 1009.3
20260904202720 62 248 6.0 8.0 0.00 0.24 0.24 95 1009.3
20260904202520 62 270 6.0 9.0 0.00 0.24 0.24 95 1009.3
20260904202330 62 248 6.0 9.0 0.00 0.24 0.24 95 1009.3
20260904202137 62 270 6.0 9.0 0.00 0.24 0.24 95 1009.1
20260904202023 62 292 6.0 9.0 0.00 0.24 0.24 95 1009.1
20260904201810 62 248 6.0 9.0 0.00 0.24 0.24 95 1009.1
20260904201622 62 248 6.0 9.0 0.00 0.24 0.24 95 1009.1
20260904201445 62 292 6.0 10.0 0.00 0.24 0.24 94 1009.2
20260904201302 62 248 6.0 10.0 0.00 0.24 0.24 94 1009.2
20260904201205 62 248 6.0 10.0 0.00 0.24 0.24 94 1009.2
20260904201105 62 292 6.0 10.0 0.00 0.24 0.24 94 1009.2
20260904200915 62 292 6.0 10.0 0.00 0.24 0.24 94 1009.2
20260904200739 62 225 5.0 9.0 0.00 0.24 0.24 95 1009.3
20260904200550 62 225 5.0 9.0 0.00 0.24 0.24 95 1009.2
20260904200410 62 248 5.0 9.0 0.00 0.24 0.24 94 1009.2
20260904200229 62 225 6.0 9.0 0.00 0.24 0.24 94 1009.2
20260904200050 62 292 6.0 8.0 0.00 0.24 0.24 94 1009.2
20260904195902 62 270 6.0 10.0 0.00 0.24 0.24 94 1009.1
20260904195720 62 292 6.0 10.0 0.00 0.24 0.24 94 1009.0
20260904195520 62 248 6.0 10.0 0.00 0.24 0.24 94 1009.1
20260904195346 62 225 6.0 11.0 0.00 0.24 0.24 94 1009.2
20260904195320 62 225 6.0 11.0 0.00 0.24 0.24 94 1009.2
20260904195140 62 270 6.0 11.0 0.00 0.24 0.24 94 1009.1
20260904194942 62 225 6.0 10.0 0.00 0.24 0.24 94 1009.2
20260904194755 62 248 7.0 10.0 0.00 0.24 0.24 94 1009.1
20260904194610 62 270 6.0 10.0 0.00 0.24 0.24 94 1009.1
20260904194430 62 248 6.0 10.0 0.00 0.24 0.24 94 1009.1
20260904194235 62 270 6.0 10.0 0.00 0.24 0.24 94 1009.1
20260904194040 62 225 6.0 10.0 0.00 0.24 0.24 94 1009.1
20260904193900 62 270 6.0 9.0 0.00 0.24 0.24 94 1009.1
20260904193715 62 270 6.0 10.0 0.00 0.24 0.24 94 1009.1
20260904193549 62 270 6.0 10.0 0.00 0.24 0.24 94 1009.1
20260904193517 62 248 6.0 10.0 0.00 0.24 0.24 94 1009.1
20260904193320 62 225 6.0 10.0 0.00 0.24 0.24 94 1009.2
20260904193140 62 270 6.0 10.0 0.00 0.24 0.24 94 1009.1
20260904192942 62 225 6.0 10.0 0.00 0.24 0.24 94 1009.1
20260904192750 62 292 6.0 10.0 0.00 0.24 0.24 94 1009.1
20260904192605 62 248 6.0 10.0 0.00 0.24 0.24 94 1009.1
20260904192410 62 292 6.0 10.0 0.00 0.24 0.24 94 1009.0
20260904192215 62 202 6.0 10.0 0.00 0.24 0.24 94 1009.1
20260904192020 62 248 6.0 10.0 0.00 0.24 0.24 94 1009.1
20260904191948 62 248 6.0 10.0 0.00 0.24 0.24 94 1009.0
20260904191830 62 248 6.0 9.0 0.00 0.24 0.24 94 1009.0
20260904191635 62 270 6.0 9.0 0.00 0.24 0.24 94 1009.0
20260904191451 62 270 6.0 11.0 0.00 0.24 0.24 94 1008.9
20260904191302 62 270 6.0 11.0 0.00 0.24 0.24 94 1009.0
20260904191109 62 225 6.0 11.0 0.00 0.24 0.24 94 1008.9
20260904190920 62 292 6.0 11.0 0.00 0.24 0.24 94 1009.0
20260904190729 62 225 6.0 10.0 0.00 0.24 0.24 94 1009.0
20260904190550 62 248 7.0 15.0 0.00 0.24 0.24 94 1008.9
20260904190405 62 292 7.0 15.0 0.00 0.24 0.24 94 1008.9
20260904190307 62 270 8.0 15.0 0.00 0.24 0.24 94 1008.8
20260904190222 62 225 8.0 15.0 0.00 0.24 0.24 94 1008.9
20260904190044 62 248 8.0 13.0 0.00 0.24 0.24 94 1008.8
20260904185844 62 202 7.0 13.0 0.00 0.24 0.24 94 1008.8
20260904185658 62 248 7.0 13.0 0.00 0.24 0.24 94 1008.9
20260904185515 62 270 7.0 11.0 0.00 0.24 0.24 94 1008.9
20260904185325 62 270 7.0 11.0 0.00 0.24 0.24 94 1009.0
20260904185137 62 225 7.0 9.0 0.00 0.24 0.24 94 1009.0
20260904185002 62 248 7.0 9.0 0.00 0.24 0.24 94 1009.0
20260904184810 62 225 7.0 12.0 0.00 0.24 0.24 94 1008.9
20260904184630 62 202 7.0 12.0 0.00 0.24 0.24 94 1008.9
20260904184455 62 248 7.0 12.0 0.00 0.24 0.24 94 1008.9
20260904184310 62 248 7.0 11.0 0.00 0.24 0.24 94 1008.9
20260904184125 62 248 7.0 11.0 0.00 0.24 0.24 94 1008.8
20260904183934 62 248 7.0 11.0 0.02 0.24 0.24 94 1008.8
20260904183752 62 225 7.0 11.0 0.02 0.24 0.24 94 1008.7
20260904183605 62 248 7.0 11.0 0.02 0.24 0.24 94 1008.6
20260904183422 62 270 6.0 10.0 0.03 0.24 0.24 94 1008.5
20260904183230 62 225 6.0 10.0 0.03 0.24 0.24 94 1008.4
20260904183044 62 202 7.0 11.0 0.03 0.24 0.24 94 1008.4
20260904182949 62 225 7.0 11.0 0.03 0.24 0.24 94 1008.4
20260904182905 62 292 6.0 11.0 0.05 0.24 0.24 94 1008.3
20260904182719 62 202 6.0 11.0 0.05 0.24 0.24 94 1008.3
20260904182522 62 202 7.0 10.0 0.05 0.24 0.24 94 1008.1
20260904182330 62 225 7.0 10.0 0.05 0.24 0.24 94 1008.1
20260904182130 62 270 7.0 10.0 0.05 0.24 0.24 94 1008.3
20260904181950 62 225 7.0 10.0 0.05 0.24 0.24 93 1008.2
20260904181805 62 270 8.0 10.0 0.06 0.24 0.24 93 1008.2
20260904181627 62 225 9.0 15.0 0.06 0.24 0.24 93 1008.3
20260904181450 62 248 9.0 15.0 0.06 0.24 0.24 93 1008.4
20260904181257 62 248 9.0 14.0 0.06 0.24 0.24 93 1008.4
20260904181130 62 202 9.0 14.0 0.06 0.24 0.24 93 1008.3
20260904180955 62 270 9.0 14.0 0.06 0.24 0.24 93 1008.4
20260904180815 62 270 8.0 14.0 0.06 0.24 0.24 93 1008.4
20260904180638 62 225 9.0 13.0 0.06 0.24 0.24 93 1008.3
20260904180450 62 248 9.0 13.0 0.06 0.24 0.24 93 1008.2
20260904180300 62 202 9.0 13.0 0.06 0.24 0.24 93 1008.2
20260904180115 62 248 9.0 13.0 0.06 0.24 0.24 93 1008.3
20260904175915 62 292 9.0 14.0 0.06 0.24 0.24 92 1008.4
20260904175725 62 202 9.0 14.0 0.06 0.24 0.24 92 1008.6
20260904175525 63 248 9.0 14.0 0.06 0.24 0.24 92 1008.6
20260904175412 63 270 8.0 14.0 0.06 0.24 0.24 92 1008.6
20260904175330 63 270 8.0 13.0 0.06 0.24 0.24 93 1008.6
20260904175150 63 248 8.0 13.0 0.06 0.24 0.24 93 1008.5
20260904174947 63 270 8.0 17.0 0.06 0.24 0.24 93 1008.5
20260904174810 63 202 8.0 17.0 0.06 0.24 0.24 93 1008.3
20260904174615 63 248 8.0 17.0 0.06 0.24 0.24 93 1008.1
20260904174430 63 225 7.0 10.0 0.06 0.24 0.24 94 1008.0
20260904174250 63 248 7.0 11.0 0.06 0.24 0.24 94 1008.1
20260904174105 63 270 7.0 11.0 0.06 0.24 0.24 93 1008.0
20260904173924 64 225 7.0 11.0 0.06 0.24 0.24 93 1007.2
20260904173735 64 292 8.0 11.0 0.06 0.24 0.24 93 1007.0
20260904173537 64 225 8.0 11.0 0.06 0.24 0.24 93 1007.4
20260904173345 64 225 8.0 10.0 0.05 0.22 0.22 93 1007.7
20260904173155 64 292 8.0 15.0 0.05 0.22 0.22 93 1007.6
20260904173000 64 202 8.0 15.0 0.05 0.22 0.22 92 1007.3
20260904172815 64 248 8.0 15.0 0.03 0.20 0.20 92 1007.4
20260904172630 64 248 8.0 11.0 0.03 0.20 0.20 92 1007.5
20260904172430 64 248 8.0 13.0 0.03 0.20 0.20 92 1007.5
20260904172244 65 248 8.0 13.0 0.02 0.19 0.19 92 1007.7
20260904172037 65 225 8.0 13.0 0.02 0.19 0.19 91 1007.5
20260904170230 65 248 7.0 13.0 0.00 0.17 0.17 90 1007.6
20260904170104 65 202 6.0 9.0 0.02 0.17 0.17 90 1007.6
20260904165923 65 248 7.0 10.0 0.02 0.17 0.17 90 1007.6
20260904165745 65 225 7.0 10.0 0.02 0.17 0.17 90 1007.8
20260904165604 65 202 7.0 10.0 0.02 0.17 0.17 90 1007.6
20260904165425 65 202 7.0 10.0 0.02 0.17 0.17 90 1007.6
20260904165242 65 248 7.0 10.0 0.02 0.17 0.17 90 1007.6
20260904165035 65 270 8.0 11.0 0.02 0.17 0.17 90 1007.5
20260904164917 65 270 8.0 11.0 0.02 0.17 0.17 90 1007.5
20260904164707 65 270 8.0 11.0 0.02 0.17 0.17 90 1007.5
20260904164647 65 248 8.0 11.0 0.02 0.17 0.17 90 1007.5
20260904164520 65 248 8.0 11.0 0.02 0.17 0.17 90 1007.4
20260904164330 65 292 7.0 11.0 0.02 0.17 0.17 91 1007.4
20260904164132 65 225 7.0 11.0 0.02 0.17 0.17 91 1007.6
20260904163955 65 248 7.0 12.0 0.02 0.17 0.17 91 1007.6
20260904163812 65 225 7.0 12.0 0.03 0.17 0.17 92 1007.7
20260904163630 66 248 7.0 12.0 0.03 0.17 0.17 92 1007.7
20260904163450 66 202 7.0 12.0 0.03 0.17 0.17 92 1007.7
20260904163315 66 225 7.0 11.0 0.03 0.17 0.17 92 1007.6
20260904163125 66 248 8.0 15.0 0.03 0.17 0.17 92 1007.7
20260904162944 66 292 8.0 15.0 0.03 0.17 0.17 92 1007.9
20260904162814 66 248 8.0 15.0 0.03 0.17 0.17 92 1007.8
20260904162754 66 202 8.0 15.0 0.03 0.17 0.17 92 1007.7
20260904162605 66 225 8.0 11.0 0.03 0.17 0.17 92 1007.8
20260904162425 66 292 7.0 16.0 0.03 0.17 0.17 93 1007.8
20260904162230 66 248 8.0 16.0 0.05 0.17 0.17 92 1008.0
20260904162045 66 225 8.0 16.0 0.05 0.17 0.17 92 1007.9
20260904161846 66 225 8.0 11.0 0.05 0.17 0.17 93 1007.9
20260904161656 66 225 8.0 15.0 0.05 0.17 0.17 93 1007.8
20260904161508 66 270 8.0 15.0 0.05 0.17 0.17 93 1007.9
20260904161314 66 248 8.0 15.0 0.05 0.17 0.17 93 1007.8
20260904161135 66 248 8.0 13.0 0.05 0.17 0.17 93 1007.7
20260904160935 66 248 8.0 13.0 0.05 0.17 0.17 93 1007.6
20260904160745 66 248 8.0 9.0 0.05 0.17 0.17 94 1007.6
20260904160605 66 225 8.0 15.0 0.05 0.17 0.17 94 1007.4
20260904160405 66 248 7.0 15.0 0.05 0.17 0.17 94 1007.4
20260904160205 67 292 7.0 15.0 0.05 0.17 0.17 94 1007.4
20260904160020 67 225 6.0 12.0 0.05 0.17 0.17 94 1007.3
20260904155830 67 202 6.0 8.0 0.05 0.17 0.17 95 1007.3
20260904155651 67 202 6.0 8.0 0.05 0.17 0.17 94 1007.2
20260904155500 67 202 6.0 10.0 0.03 0.16 0.16 94 1007.2
20260904155359 67 292 7.0 10.0 0.03 0.16 0.16 94 1007.2
20260904155300 67 180 7.0 10.0 0.03 0.16 0.16 94 1007.3
20260904155100 67 248 7.0 10.0 0.03 0.16 0.16 94 1007.3
20260904154900 67 202 8.0 15.0 0.03 0.16 0.16 94 1007.5
20260904154720 67 225 8.0 15.0 0.03 0.16 0.16 94 1007.5
20260904154526 67 248 8.0 15.0 0.03 0.16 0.16 94 1007.4
20260904154330 67 225 7.0 13.0 0.03 0.16 0.16 94 1007.5
20260904154150 67 248 7.0 13.0 0.03 0.16 0.16 95 1007.4
20260904153955 67 270 7.0 12.0 0.03 0.16 0.16 95 1007.3
20260904153805 67 225 7.0 12.0 0.03 0.16 0.16 95 1007.3
20260904153628 67 248 7.0 11.0 0.03 0.16 0.16 95 1007.3
20260904153445 67 248 7.0 13.0 0.03 0.16 0.16 95 1007.3
20260904153250 67 202 7.0 13.0 0.11 0.14 0.14 95 1007.3
20260904153109 67 225 7.0 13.0 0.11 0.14 0.14 95 1007.2
20260904152925 67 248 7.0 10.0 0.11 0.14 0.14 94 1007.2
20260904152737 67 292 7.0 10.0 0.14 0.14 0.14 95 1007.1
20260904152555 67 270 7.0 10.0 0.14 0.14 0.14 95 1007.0
20260904152403 67 270 7.0 17.0 0.14 0.14 0.14 94 1007.2
20260904152225 67 225 7.0 17.0 0.14 0.14 0.14 94 1007.1
20260904152045 67 270 7.0 17.0 0.14 0.14 0.14 94 1006.9
20260904151854 67 248 8.0 17.0 0.14 0.14 0.14 94 1007.1
20260904151655 68 292 7.0 11.0 0.13 0.13 0.13 94 1007.4
20260904151513 68 225 8.0 11.0 0.13 0.13 0.13 94 1007.4
20260904151325 68 225 7.0 15.0 0.13 0.13 0.13 94 1007.4
20260904151135 68 248 7.0 15.0 0.13 0.13 0.13 95 1007.2
20260904150955 68 248 7.0 15.0 0.13 0.13 0.13 95 1007.0
20260904150810 68 292 7.0 10.0 0.13 0.13 0.13 95 1007.0
20260904150630 68 292 7.0 10.0 0.13 0.13 0.13 94 1006.9
20260904150440 68 292 7.0 11.0 0.13 0.13 0.13 95 1006.9
20260904150247 68 248 8.0 14.0 0.13 0.13 0.13 94 1006.8
20260904150218 68 270 8.0 14.0 0.13 0.13 0.13 94 1006.8
20260904150105 68 248 8.0 14.0 0.13 0.13 0.13 94 1006.7
20260904145915 68 248 8.0 11.0 0.13 0.13 0.13 95 1006.7
20260904145736 68 248 8.0 11.0 0.13 0.13 0.13 95 1006.7
20260904145540 68 292 8.0 15.0 0.13 0.13 0.13 95 1006.8
20260904145341 68 270 8.0 15.0 0.13 0.13 0.13 95 1006.8
20260904145145 68 270 8.0 15.0 0.13 0.13 0.13 95 1006.7
20260904144950 68 315 9.0 15.0 0.13 0.13 0.13 95 1006.8
20260904144804 68 270 9.0 11.0 0.13 0.13 0.13 95 1006.7
20260904144610 68 292 9.0 16.0 0.13 0.13 0.13 95 1006.7
20260904144526 68 248 9.0 16.0 0.13 0.13 0.13 95 1006.7
20260904144410 68 248 9.0 16.0 0.13 0.13 0.13 95 1006.8
20260904144225 68 248 9.0 16.0 0.13 0.13 0.13 95 1006.7
20260904144040 68 270 9.0 11.0 0.13 0.13 0.13 95 1006.7
20260904143845 69 292 9.0 11.0 0.13 0.13 0.13 95 1006.6
20260904143655 69 270 9.0 12.0 0.13 0.13 0.13 95 1006.9
20260904143513 70 270 9.0 14.0 0.13 0.13 0.13 95 1006.8
20260904143315 71 292 9.0 19.0 0.13 0.13 0.13 94 1006.6
20260904143135 72 292 10.0 19.0 0.13 0.13 0.13 94 1006.7
20260904142944 74 248 10.0 16.0 0.03 0.03 0.03 90 1006.7
20260904142745 74 292 10.0 16.0 0.03 0.03 0.03 87 1006.7
20260904142733 74 292 10.0 16.0 0.03 0.03 0.03 87 1006.6
20260904142553 75 248 11.0 15.0 0.03 0.03 0.03 81 1006.3
20260904142405 76 248 11.0 19.0 0.00 0.00 0.00 79 1005.8
20260904142220 76 248 12.0 19.0 0.00 0.00 0.00 77 1005.6
20260904142040 77 248 11.0 19.0 0.00 0.00 0.00 72 1005.3
20260904141840 77 248 12.0 19.0 0.00 0.00 0.00 70 1005.2
20260904141700 77 292 12.0 18.0 0.00 0.00 0.00 69 1005.3
20260904141520 78 292 12.0 15.0 0.00 0.00 0.00 68 1005.4
20260904141325 78 292 12.0 21.0 0.00 0.00 0.00 65 1005.2
20260904141130 78 225 12.0 21.0 0.00 0.00 0.00 63 1005.1
20260904141023 78 270 12.0 21.0 0.00 0.00 0.00 63 1005.1
20260904140940 78 225 13.0 21.0 0.00 0.00 0.00 63 1005.2
20260904140747 78 292 12.0 21.0 0.00 0.00 0.00 62 1005.0
20260904140604 78 270 11.0 24.0 0.00 0.00 0.00 62 1005.0
20260904140420 79 248 11.0 24.0 0.00 0.00 0.00 62 1005.0
20260904140239 79 180 10.0 24.0 0.00 0.00 0.00 62 1004.9
20260904140040 79 158 10.0 23.0 0.00 0.00 0.00 63 1004.8
20260904135845 79 180 11.0 23.0 0.00 0.00 0.00 62 1004.8
20260904135650 79 225 12.0 23.0 0.00 0.00 0.00 62 1004.9
20260904135455 79 180 12.0 23.0 0.00 0.00 0.00 62 1004.8
20260904135310 78 225 12.0 23.0 0.00 0.00 0.00 62 1004.9
20260904135218 78 248 12.0 28.0 0.00 0.00 0.00 62 1005.0
20260904135110 78 248 12.0 28.0 0.00 0.00 0.00 62 1005.1
20260904134915 78 248 12.0 28.0 0.00 0.00 0.00 62 1004.9
20260904134720 78 202 11.0 23.0 0.00 0.00 0.00 62 1005.0
20260904134540 78 225 10.0 18.0 0.00 0.00 0.00 62 1005.1
20260904134353 78 225 11.0 18.0 0.00 0.00 0.00 63 1005.0
20260904134205 78 202 11.0 16.0 0.00 0.00 0.00 63 1005.1
20260904134020 78 248 10.0 19.0 0.00 0.00 0.00 64 1005.2
20260904133835 78 225 11.0 20.0 0.00 0.00 0.00 64 1005.3
20260904133700 78 202 11.0 20.0 0.00 0.00 0.00 64 1005.4
20260904133505 78 270 11.0 20.0 0.00 0.00 0.00 64 1005.3
20260904133319 78 270 11.0 20.0 0.00 0.00 0.00 63 1005.6
20260904133120 78 225 10.0 17.0 0.00 0.00 0.00 64 1005.6
20260904132935 78 270 10.0 17.0 0.00 0.00 0.00 64 1005.6
20260904132750 78 225 10.0 17.0 0.00 0.00 0.00 64 1005.5
20260904132550 78 225 10.0 17.0 0.00 0.00 0.00 65 1005.5
20260904132355 77 225 10.0 17.0 0.00 0.00 0.00 65 1005.5
20260904132158 77 180 11.0 17.0 0.00 0.00 0.00 65 1005.5
20260904132005 77 158 10.0 17.0 0.00 0.00 0.00 64 1005.5
20260904131902 77 292 10.0 17.0 0.00 0.00 0.00 65 1005.5
20260904131825 77 270 10.0 17.0 0.00 0.00 0.00 65 1005.5
20260904131700 77 270 11.0 17.0 0.00 0.00 0.00 65 1005.6
20260904131505 77 180 11.0 19.0 0.00 0.00 0.00 65 1005.5
20260904131305 77 225 10.0 19.0 0.00 0.00 0.00 66 1005.6
20260904131120 77 270 10.0 19.0 0.00 0.00 0.00 66 1005.6
20260904130939 77 202 11.0 17.0 0.00 0.00 0.00 66 1005.7
20260904130740 77 202 10.0 17.0 0.00 0.00 0.00 66 1005.7
20260904130545 77 225 10.0 17.0 0.00 0.00 0.00 66 1005.8
20260904130405 76 225 10.0 18.0 0.00 0.00 0.00 66 1005.9
20260904130230 76 270 9.0 18.0 0.00 0.00 0.00 66 1005.6
20260904130153 76 248 9.0 17.0 0.00 0.00 0.00 67 1005.9
20260904130035 76 248 9.0 17.0 0.00 0.00 0.00 66 1005.9
20260904125845 76 225 9.0 17.0 0.00 0.00 0.00 66 1005.9